This demonstration page uses our WeatherBlox Daily Observations layout. Learn more.

Left ArrowRight Arrow

39.51506, -84.39828

Hourly Observations for May 4, 2016

Temp ( °F °C ) Dew Point ( °F °C ) Humidity (%) Winds ( mph kmh ) Pressure ( in mb ) Visibility ( mi km ) Precip ( " mm )
12:15 am 00:15 Clear 49 9.6 43 6.1 79 79 SW 5 7 29.85 1011 10 16.0934 N/A
12:35 am 00:35 Clear 50 10.2 45 7.2 82 82 WSW 3 6 29.85 1011 7 11.26538 N/A
12:55 am 00:55 Hazy 49 9.6 44 6.7 82 82 SW 3 6 29.85 1011 5 8.0467 N/A
1:15 am 01:15 Hazy 49 9.6 44 6.8 83 83 undefined N/A 29.85 1011 4 6.43736 N/A
1:35 am 01:35 Clear 49 9.6 44 6.9 83 83 SW 5 7 29.85 1011 7 11.26538 N/A
1:55 am 01:55 Hazy 49 9.2 44 6.4 83 83 WSW 3 6 29.85 1011 2 3.21868 N/A
2:15 am 02:15 Mostly Cloudy with Haze 49 9.3 44 6.7 84 84 undefined N/A 29.85 1011 0.75 1.207005 N/A
2:35 am 02:35 Clear with Mist and Fog 49 9.6 45 7 84 84 N N/A 29.83 1010 2.5 4.02335 N/A
2:55 am 02:55 Hazy 48 8.8 43 6.2 84 84 WSW 3 6 29.83 1010 3 4.82802 N/A
3:15 am 03:15 Hazy 47 8.2 42 5.6 84 84 SW 3 6 29.83 1010 3 4.82802 N/A
3:35 am 03:35 Mostly Cloudy with Haze 47 8.2 42 5.6 84 84 N N/A 29.8 1009 0.75 1.207005 N/A
3:55 am 03:55 Mostly Cloudy with Haze 47 8.2 42 5.6 84 84 N N/A 29.8 1009 1 1.60934 N/A
4:15 am 04:15 Mostly Cloudy with Haze 47 8.2 42 5.7 84 84 WSW 3 6 29.8 1009 0.5 0.80467 N/A
4:35 am 04:35 Mostly Cloudy with Mist and Fog 46 7.7 42 5.3 85 85 undefined N/A 29.8 1009 1.25 2.011675 N/A
4:55 am 04:55 Mostly Cloudy with Haze 48 8.7 43 6.2 84 84 undefined N/A 29.77 1008 1.5 2.41401 N/A
5:15 am 05:15 Mostly Cloudy with Mist and Fog 47 8.2 42 5.8 85 85 undefined N/A 29.77 1008 1.25 2.011675 N/A
5:35 am 05:35 Partly Cloudy with Mist and Fog 47 8.2 42 5.8 85 85 N N/A 29.77 1008 3 4.82802 N/A
5:55 am 05:55 Mostly Cloudy with Mist and Fog 49 9.6 45 7.2 85 85 undefined N/A 29.77 1008 3 4.82802 N/A
6:15 am 06:15 Mostly Cloudy with Mist and Fog 49 9.6 45 7.2 85 85 N N/A 29.77 1008 4 6.43736 N/A
6:35 am 06:35 Cloudy with Mist and Fog 49 9.6 45 7.2 85 85 undefined N/A 29.77 1008 5 8.0467 N/A
6:55 am 06:55 Cloudy 49 9.6 45 7.2 85 85 undefined N/A 29.77 1008 10 16.0934 N/A
7:15 am 07:15 Cloudy with Mist and Fog 49 9.6 45 7.2 85 85 undefined N/A 29.77 1008 5 8.0467 N/A
7:35 am 07:35 Cloudy 49 9.6 45 7.2 85 85 undefined N/A 29.74 1007 10 16.0934 N/A
7:55 am 07:55 Cloudy 51 10.3 46 7.7 84 84 undefined N/A 29.74 1007 10 16.0934 N/A
8:15 am 08:15 Cloudy 54 12.3 49 9.2 82 82 undefined N/A 29.74 1007 10 16.0934 N/A
8:35 am 08:35 Cloudy 55 12.5 48 8.7 78 78 undefined N/A 29.74 1007 10 16.0934 N/A
8:55 am 08:55 Cloudy 55 12.5 47 8.1 75 75 undefined N/A 29.74 1007 10 16.0934 N/A
9:15 am 09:15 Partly Cloudy 57 13.8 47 8.1 69 69 undefined N/A 29.71 1006 10 16.0934 N/A
9:35 am 09:35 Mostly Cloudy 60 15.3 46 7.6 60 60 WSW 12 19 29.68 1005 10 16.0934 N/A
9:55 am 09:55 Cloudy 59 15.2 44 6.6 57 57 WSW 16 26 29.71 1006 10 16.0934 N/A
10:15 am 10:15 Mostly Cloudy 60 15.3 44 6.4 56 56 WSW 16 26 29.68 1005 10 16.0934 N/A
10:35 am 10:35 Cloudy 57 13.8 42 5.8 59 59 WSW 12 19 29.68 1005 10 16.0934 N/A
10:55 am 10:55 Cloudy 57 13.8 43 6.1 60 60 WSW 10 17 29.68 1005 10 16.0934 N/A
11:15 am 11:15 Cloudy with Drizzle 55 12.5 43 5.9 64 64 WSW 14 22 29.74 1007 10 16.0934 N/A
11:35 am 11:35 Cloudy with Light Rain 55 12.5 44 6.6 68 68 WSW 10 17 29.74 1007 10 16.0934 N/A
11:55 am 11:55 Cloudy with Light Rain 55 12.5 45 7 69 69 WSW 13 20 29.74 1007 10 16.0934 N/A
12:15 pm 12:15 Cloudy with Light Rain 55 12.5 45 7.3 71 71 undefined N/A 29.68 1005 10 16.0934 N/A
12:35 pm 12:35 Cloudy with Drizzle 55 12.5 46 7.8 73 73 undefined N/A 29.74 1007 10 16.0934 N/A
12:55 pm 12:55 Cloudy 55 12.5 47 8.1 75 75 undefined N/A 29.68 1005 10 16.0934 N/A
1:15 pm 13:15 Cloudy 55 12.5 46 7.8 73 73 undefined N/A 29.68 1005 10 16.0934 N/A
1:35 pm 13:35 Cloudy 55 12.6 46 7.6 72 72 undefined N/A 29.68 1005 10 16.0934 N/A
1:55 pm 13:55 Cloudy 57 13.8 47 8.1 69 69 undefined N/A 29.68 1005 10 16.0934 N/A
2:15 pm 14:15 Cloudy with Light Rain 55 12.5 44 6.8 68 68 WNW 8 13 29.68 1005 10 16.0934 N/A
2:35 pm 14:35 Cloudy 55 12.5 46 7.6 72 72 WSW 5 7 29.68 1005 10 16.0934 N/A
2:55 pm 14:55 Cloudy with Light Rain 56 13.5 46 8 70 70 WNW 7 11 29.68 1005 10 16.0934 N/A
3:15 pm 15:15 Cloudy 57 13.8 46 7.6 66 66 W 5 7 29.68 1005 10 16.0934 N/A
3:35 pm 15:35 Cloudy 57 13.8 44 6.9 63 63 WSW 6 9 29.65 1004 10 16.0934 N/A
3:55 pm 15:55 Cloudy 57 13.9 44 6.4 61 61 W 9 15 29.65 1004 10 16.0934 N/A
4:15 pm 16:15 Cloudy 60 15.3 44 6.4 56 56 undefined N/A 29.65 1004 10 16.0934 N/A
4:35 pm 16:35 Mostly Cloudy 60 15.5 38 3.6 45 45 undefined N/A 29.65 1004 10 16.0934 N/A
4:55 pm 16:55 Mostly Cloudy 61 16 37 2.8 41 41 undefined N/A 29.68 1005 10 16.0934 N/A
5:15 pm 17:15 Partly Cloudy 60 15.3 35 1.8 40 40 undefined N/A 29.68 1005 10 16.0934 N/A
5:35 pm 17:35 Partly Cloudy 57 14.1 36 2.4 45 45 undefined N/A 29.71 1006 10 16.0934 N/A
5:55 pm 17:55 Mostly Cloudy 57 13.8 34 1.2 43 43 undefined N/A 29.71 1006 10 16.0934 N/A
6:15 pm 18:15 Cloudy 55 12.7 33 0.4 43 43 undefined N/A 29.71 1006 10 16.0934 N/A
6:35 pm 18:35 Cloudy 57 13.8 33 0.8 41 41 undefined N/A 29.71 1006 10 16.0934 N/A
6:55 pm 18:55 Mostly Cloudy 55 12.5 33 0.6 44 44 undefined N/A 29.74 1007 10 16.0934 N/A
7:15 pm 19:15 Cloudy 55 12.5 36 2.3 50 50 undefined N/A 29.77 1008 10 16.0934 N/A
7:35 pm 19:35 Cloudy 55 12.5 37 2.8 52 52 undefined N/A 29.77 1008 10 16.0934 N/A
7:55 pm 19:55 Cloudy 55 12.5 37 2.6 51 51 undefined N/A 29.77 1008 10 16.0934 N/A
8:15 pm 20:15 Cloudy 52 11 35 1.6 53 53 undefined N/A 29.77 1008 10 16.0934 N/A
8:35 pm 20:35 Cloudy 52 11 35 1.8 53 53 undefined N/A 29.8 1009 10 16.0934 N/A
8:55 pm 20:55 Cloudy 51 10.3 34 1.2 54 54 NW 10 17 29.8 1009 10 16.0934 N/A
9:15 pm 21:15 Cloudy 50 10.2 34 1.1 54 54 undefined N/A 29.8 1009 10 16.0934 N/A
9:35 pm 21:35 Cloudy 49 9.7 32 0.2 52 52 undefined N/A 29.8 1009 10 16.0934 N/A
9:55 pm 21:55 Partly Cloudy 49 9.6 32 0.1 52 52 undefined N/A 29.8 1009 10 16.0934 N/A
10:15 pm 22:15 Mostly Cloudy 49 9.6 33 0.8 55 55 WNW 7 11 29.8 1009 10 16.0934 N/A
10:35 pm 22:35 Cloudy 49 9.6 32 0.1 52 52 NW 10 17 29.8 1009 10 16.0934 N/A
10:55 pm 22:55 Cloudy 49 9.6 32 0.1 52 52 WNW 8 13 29.8 1009 10 16.0934 N/A
11:15 pm 23:15 Mostly Cloudy 48 8.7 33 0.7 58 58 WNW 6 9 29.8 1009 10 16.0934 N/A
11:35 pm 23:35 Mostly Cloudy 49 9.3 34 1.3 58 58 NW 7 11 29.8 1009 10 16.0934 N/A
11:55 pm 23:55 Cloudy 49 9.6 34 1.3 57 57 WNW 7 11 29.8 1009 10 16.0934 N/A

Powered by AerisWeather